Wind_Speed
4 4 3 7 19 29 22 32 23 25 31 39 40 27 22 21 20 16 14 10 9 10 11 12 12 11 10 13 13 17 20 20 19 19 17 20 30 37 27 28 30 33 38
16 8 5 5 5 13 23 27 20 15 15 17 20 19 16 16 13 12 10 9 10 11 13 14 16 16 16 17 17 17 18 19 23 23 23 22 21 25 38 41 42 46 45
20 15 13 14 10 12 13 17 18 19 18 11 14 15 15 14 15 16 14 13 13 15 16 15 18 22 23 24 26 24 25 25 24 22 22 23 22 25 28 31 36 44 43
20 20 18 12 12 12 13 17 21 22 23 21 19 19 18 18 18 17 15 14 14 16 19 20 22 24 27 29 30 32 31 31 31 32 32 31 30 30 32 33 35 37 39
19 13 10 14 11 10 11 13 15 19 26 24 23 22 20 21 22 22 19 16 14 16 20 22 24 26 28 30 33 36 37 37 38 40 40 39 39 38 37 38 39 43 46
24 18 17 15 14 15 12 8 7 13 18 21 21 20 19 20 17 13 15 13 18 18 20 23 25 29 32 33 35 37 39 43 45 46 46 46 46 47 48 49 52 55 56
24 27 32 30 25 19 13 11 12 7 9 12 18 23 22 18 20 17 17 18 32 32 33 32 36 38 41 43 41 41 43 44 46 48 50 52 53 54 54 56 59 61 63
32 34 26 32 30 25 19 18 18 17 20 17 15 15 19 24 25 26 27 32 37 38 39 41 40 43 46 47 46 46 42 40 41 44 48 52 55 58 60 63 65 68 70
31 34 29 35 33 36 33 32 27 27 28 27 26 24 25 27 28 30 33 38 42 44 46 45 45 44 42 45 48 49 52 53 53 53 52 54 58 60 64 67 70 72 70
27 22 31 37 39 40 42 38 32 30 33 34 33 34 33 35 33 34 36 41 46 48 48 48 47 42 41 41 39 40 42 51 54 55 58 60 64 64 63 64 65 66 67
25 25 39 38 40 43 41 36 35 34 35 37 38 38 39 37 39 41 44 45 49 52 54 54 50 43 41 40 39 38 37 38 41 43 45 49 54 59 63 67 71 74 75
42 42 43 40 40 41 43 39 37 38 38 38 41 44 45 43 45 47 48 52 53 54 52 48 46 45 44 45 45 46 44 44 45 48 53 59 63 68 73 75 77 79 82
46 46 46 41 39 39 35 39 39 37 41 44 45 48 47 51 52 53 57 58 52 51 51 49 48 48 50 51 51 49 48 51 54 61 68 71 74 74 74 78 80 81 83
45 45 46 43 43 42 37 43 47 51 52 50 54 54 55 59 60 62 58 57 57 56 51 50 51 52 55 55 54 54 54 59 65 69 75 79 80 81 82 85 86 87 89
46 49 47 48 52 52 53 54 56 57 58 61 61 62 62 63 60 56 55 55 56 53 54 55 56 57 57 59 58 60 65 70 76 81 84 86 86 88 90 90 91 93 93
55 51 49 46 48 51 53 54 54 55 55 56 57 59 59 58 55 55 57 56 56 60 61 60 59 62 63 63 67 72 75 80 85 87 89 92 93 94 94 94 93 91 91
54 61 57 56 57 55 55 58 60 61 62 60 61 59 55 57 59 60 61 61 62 62 64 64 65 67 70 73 77 80 83 87 90 92 93 96 98 97 94 92 90 87 80
41 41 43 45 52 58 61 63 66 64 64 68 68 67 68 69 71 66 65 64 65 65 68 71 74 76 80 81 83 86 88 91 93 94 97 98 97 94 90 86 78 74 70
44 48 49 51 57 58 60 63 65 67 69 69 69 72 70 66 67 67 67 68 69 74 77 80 82 83 84 86 88 92 93 96 95 98 99 98 93 88 80 75 71 66 69
45 48 49 50 52 59 60 63 67 68 67 67 65 67 67 67 71 72 75 78 81 81 81 82 85 86 88 91 94 97 97 98 101 100 98 92 84 77 74 69 68 68 66
54 53 55 55 55 58 60 61 62 63 65 66 67 70 72 76 78 78 78 79 79 81 84 87 89 92 94 95 97 98 100 100 98 95 90 81 75 74 68 68 66 65 63
51 53 55 53 54 57 58 60 62 64 67 68 69 73 76 78 79 81 82 83 85 86 88 93 94 95 95 98 99 99 100 95 91 87 79 73 72 67 67 64 63 63 60
56 57 58 60 61 62 64 66 69 70 72 74 73 75 77 81 83 85 87 89 90 91 93 96 98 98 97 96 97 95 90 87 83 76 72 72 68 68 64 62 62 59 53
67 69 71 73 74 75 75 78 77 78 81 81 81 81 86 88 88 89 90 92 93 96 97 97 98 97 93 92 89 87 83 77 72 69 71 69 70 66 60 60 57 55 56
80 81 82 83 85 87 83 87 89 89 89 92 91 93 90 91 93 96 98 99 97 96 97 94 92 88 85 84 83 79 74 70 69 68 67 70 67 59 58 58 57 58 58
88 88 90 91 92 95 94 95 96 96 96 97 98 97 98 99 100 101 101 100 94 90 86 83 80 78 78 78 77 71 68 69 68 67 68 65 61 59 59 58 60 62 64
Wind_Direction
234 344 340 200 216 225 225 224 249 245 246 253 259 262 263 268 268 254 257 240 266 296 298 300 264 255 268 272 273 265 258 261 271 271 261 274 259 244 240 260 273 272 275
209 224 223 272 239 213 214 222 249 243 242 240 243 258 270 278 255 238 238 247 275 285 289 297 295 280 277 275 275 274 265 263 262 266 273 277 274 255 257 255 260 267 272
216 240 240 254 238 262 251 243 239 234 255 261 237 258 265 273 241 237 243 253 269 276 280 284 290 293 290 292 285 280 278 272 269 265 268 270 271 267 266 267 267 268 274
218 250 244 252 255 251 252 260 255 248 252 258 260 265 267 277 271 263 263 263 262 266 269 274 278 282 284 285 284 278 278 274 270 270 268 264 262 265 266 268 268 272 274
251 223 233 241 248 252 235 266 275 263 256 253 253 261 257 267 271 271 276 277 277 278 279 278 280 280 279 278 281 278 276 275 273 271 271 270 270 272 273 272 275 278 280
235 228 221 245 266 259 252 266 267 269 249 246 244 251 267 277 279 253 272 281 330 311 299 296 292 285 280 280 281 281 280 278 277 275 274 272 274 276 276 277 282 286 285
239 241 243 252 261 254 246 259 256 254 256 260 262 260 267 259 248 254 265 281 316 314 308 301 292 291 288 283 282 283 286 286 285 281 277 277 278 280 281 278 279 281 282
241 246 243 246 250 250 256 264 259 252 262 267 259 250 263 273 276 265 273 274 299 306 306 306 295 294 290 288 279 271 268 272 274 272 271 274 277 279 280 281 282 282 282
242 249 248 252 250 250 262 269 262 259 258 265 268 267 271 285 277 278 268 273 281 294 301 298 301 297 298 295 291 287 277 269 270 274 278 281 281 281 282 283 283 286 288
237 234 250 240 243 249 254 259 256 250 254 261 268 277 280 285 273 272 274 280 282 292 294 303 304 300 294 294 294 295 294 280 277 278 281 283 286 290 289 289 289 289 289
225 231 236 240 243 246 250 252 252 256 264 265 266 270 276 271 270 275 277 282 290 295 296 297 297 297 296 296 296 296 295 294 292 291 291 291 291 291 291 290 290 290 290
228 230 236 241 247 251 250 254 249 254 258 263 269 272 277 273 275 281 287 288 288 286 288 295 296 298 297 293 292 293 291 291 292 292 293 294 294 294 294 295 294 293 291
231 233 240 245 247 246 248 251 257 257 261 266 268 268 268 275 280 285 288 291 286 286 290 291 294 296 298 295 294 293 290 290 292 295 298 299 300 298 295 296 297 296 295
235 239 242 242 242 239 239 243 245 251 256 262 268 270 272 278 283 283 281 281 280 284 286 292 294 296 295 293 293 292 292 293 295 299 301 302 301 299 299 299 298 297 295
224 236 236 243 244 246 248 254 260 265 266 267 272 273 276 278 277 272 275 278 283 280 286 291 292 292 292 292 288 292 293 296 298 300 303 303 302 301 301 301 300 299 296
223 224 231 240 252 256 261 264 269 271 273 273 271 270 270 271 272 276 281 278 280 288 288 290 292 293 294 295 294 296 297 299 300 302 303 303 303 302 302 302 301 299 298
230 231 235 237 240 243 247 251 251 260 268 270 274 276 277 276 278 281 282 284 285 287 288 290 292 294 297 298 297 299 299 301 303 304 304 303 304 304 304 303 302 301 300
249 249 248 249 250 253 257 261 264 268 272 274 276 278 278 281 282 282 283 284 286 289 291 293 295 297 297 296 298 299 301 302 302 303 305 306 305 306 305 303 303 303 304
248 250 251 256 253 254 257 258 261 266 265 272 275 278 279 278 281 284 285 288 289 292 292 293 294 295 295 297 299 300 301 302 304 305 306 307 306 304 305 306 307 306 306
259 259 259 261 263 260 261 262 264 270 273 274 276 278 279 279 283 285 287 289 290 290 290 291 294 296 297 298 299 300 302 303 304 305 306 306 305 306 308 308 308 308 308
258 261 263 263 263 265 267 269 272 274 277 278 280 282 284 284 286 286 285 286 288 290 293 294 294 296 297 298 299 300 302 303 304 305 306 305 307 308 308 308 307 309 308
258 258 261 264 267 269 272 274 276 277 278 279 280 281 282 284 285 286 287 289 291 291 292 294 295 296 297 299 299 300 302 303 304 304 304 307 307 306 307 307 307 307 307
263 263 265 268 271 274 277 278 278 278 278 279 280 282 285 286 286 286 287 289 290 291 293 294 296 297 298 299 298 300 301 302 302 303 305 307 306 307 306 307 308 307 306
264 266 268 271 273 275 278 280 281 282 282 282 282 283 286 286 286 286 286 288 290 291 295 294 295 297 297 297 298 301 301 302 302 304 305 305 306 305 305 307 307 306 306
266 267 270 272 274 275 277 278 281 282 283 283 284 285 285 285 286 287 288 289 292 291 292 295 295 295 297 297 297 300 301 302 304 304 304 305 304 301 303 304 305 307 307
267 268 269 270 272 274 276 277 279 280 281 282 283 284 284 285 285 285 286 288 291 291 292 293 294 294 294 294 298 301 301 303 302 302 304 304 301 300 301 303 305 307 308
Height
10895 10894 10896 10896 10896 10898 10901 10903 10903 10904 10905 10905 10905 10904 10904 10902 10901 10901 10901 10902 10901 10901 10900 10899 10898 10896 10894 10893 10891 10889 10888 10885 10883 10881 10880 10878 10877 10877 10877 10874 10873 10872 10871
10891 10892 10894 10897 10897 10898 10898 10900 10901 10901 10900 10900 10901 10900 10899 10896 10896 10897 10897 10897 10896 10896 10895 10894 10894 10892 10890 10889 10888 10886 10884 10881 10879 10876 10875 10873 10871 10870 10869 10868 10866 10864 10863
10889 10889 10890 10893 10894 10895 10895 10896 10897 10896 10896 10895 10895 10895 10895 10894 10893 10892 10891 10891 10891 10890 10889 10889 10889 10888 10886 10884 10882 10881 10879 10877 10874 10871 10868 10866 10865 10863 10862 10860 10857 10855 10853
10885 10886 10887 10889 10889 10889 10891 10891 10891 10890 10890 10891 10891 10891 10891 10890 10889 10888 10887 10886 10884 10883 10882 10881 10880 10879 10878 10877 10875 10873 10871 10869 10866 10864 10861 10858 10856 10854 10852 10851 10848 10846 10843
10881 10883 10884 10884 10885 10885 10885 10885 10884 10883 10885 10886 10886 10886 10886 10886 10885 10884 10882 10880 10879 10877 10875 10873 10872 10870 10868 10866 10865 10864 10861 10859 10857 10854 10851 10849 10846 10844 10842 10839 10837 10834 10831
10878 10879 10878 10879 10879 10880 10880 10879 10878 10879 10880 10881 10880 10881 10881 10881 10879 10878 10876 10875 10873 10872 10869 10866 10863 10860 10858 10855 10853 10851 10849 10847 10845 10843 10841 10838 10836 10832 10830 10827 10824 10821 10816
10870 10872 10874 10873 10874 10874 10874 10874 10875 10875 10875 10875 10875 10875 10875 10873 10871 10870 10870 10867 10866 10864 10862 10858 10854 10851 10848 10845 10842 10840 10838 10835 10832 10829 10827 10825 10822 10819 10816 10812 10809 10805 10800
10863 10866 10868 10867 10867 10868 10868 10868 10870 10870 10871 10870 10869 10867 10868 10867 10866 10864 10863 10860 10858 10855 10851 10848 10844 10840 10836 10833 10829 10826 10821 10819 10817 10814 10813 10810 10807 10803 10800 10796 10792 10787 10782
10856 10858 10860 10862 10861 10862 10861 10863 10863 10864 10864 10864 10863 10861 10860 10858 10857 10855 10853 10851 10848 10845 10842 10837 10833 10829 10825 10820 10816 10812 10809 10806 10804 10802 10799 10796 10792 10788 10783 10779 10773 10768 10765
10845 10850 10851 10853 10851 10853 10853 10855 10855 10854 10854 10854 10853 10852 10849 10848 10847 10845 10843 10840 10838 10835 10831 10826 10823 10819 10814 10809 10803 10798 10795 10793 10791 10788 10784 10781 10776 10771 10766 10760 10755 10750 10744
10839 10842 10840 10842 10843 10843 10844 10846 10845 10844 10843 10843 10842 10841 10840 10838 10836 10834 10832 10829 10826 10823 10819 10815 10811 10806 10802 10798 10793 10789 10784 10781 10779 10775 10771 10766 10761 10754 10749 10743 10735 10728 10722
10829 10829 10830 10832 10833 10833 10836 10837 10835 10834 10833 10833 10832 10830 10828 10826 10824 10823 10820 10817 10813 10809 10804 10801 10797 10793 10791 10786 10782 10778 10774 10770 10766 10761 10756 10751 10745 10737 10728 10719 10711 10703 10694
10815 10818 10820 10820 10821 10822 10823 10825 10825 10823 10822 10821 10820 10818 10817 10815 10813 10810 10806 10803 10799 10796 10792 10787 10784 10780 10775 10772 10768 10763 10758 10754 10749 10744 10739 10731 10723 10715 10707 10698 10688 10677 10669
10802 10805 10809 10809 10810 10810 10812 10814 10814 10813 10812 10809 10808 10807 10805 10803 10800 10797 10793 10789 10785 10781 10778 10774 10770 10765 10761 10755 10751 10747 10742 10736 10730 10724 10717 10709 10701 10692 10682 10672 10662 10651 10640
10791 10793 10797 10798 10799 10800 10800 10800 10800 10800 10799 10797 10796 10793 10791 10788 10784 10780 10777 10773 10770 10766 10763 10759 10754 10749 10745 10739 10734 10729 10722 10715 10709 10701 10693 10684 10674 10665 10654 10642 10630 10619 10607
10778 10781 10783 10786 10788 10788 10787 10787 10785 10783 10782 10780 10778 10777 10775 10772 10770 10766 10763 10759 10754 10751 10748 10742 10737 10733 10728 10723 10717 10709 10701 10694 10685 10677 10667 10657 10648 10637 10624 10613 10600 10587 10575
10765 10768 10770 10771 10773 10775 10776 10774 10772 10771 10769 10766 10764 10762 10759 10758 10754 10750 10747 10742 10738 10734 10730 10725 10720 10714 10709 10702 10695 10688 10680 10670 10661 10653 10642 10631 10619 10607 10595 10582 10570 10558 10547
10753 10755 10757 10759 10760 10761 10761 10759 10758 10757 10755 10753 10751 10748 10745 10741 10738 10733 10730 10726 10721 10716 10712 10707 10701 10694 10687 10679 10672 10663 10656 10648 10638 10628 10617 10605 10592 10580 10567 10556 10545 10533 10522
10742 10744 10745 10746 10746 10745 10745 10744 10743 10741 10741 10737 10735 10731 10728 10724 10719 10715 10710 10707 10702 10697 10691 10687 10680 10672 10665 10656 10648 10640 10632 10622 10612 10602 10590 10578 10566 10554 10543 10532 10522 10513 10502
10728 10728 10729 10729 10729 10730 10729 10728 10727 10725 10724 10720 10717 10714 10710 10705 10700 10695 10691 10687 10682 10677 10670 10665 10658 10650 10642 10633 10626 10616 10607 10597 10585 10575 10565 10554 10542 10531 10520 10511 10502 10493 10486
10714 10714 10713 10714 10714 10712 10712 10710 10709 10706 10704 10702 10699 10693 10689 10685 10681 10675 10671 10666 10660 10654 10648 10641 10637 10628 10620 10613 10601 10592 10582 10573 10563 10551 10541 10531 10520 10510 10502 10494 10485 10477 10469
10699 10699 10697 10698 10697 10694 10694 10692 10691 10688 10685 10682 10681 10674 10670 10664 10661 10655 10649 10644 10638 10632 10626 10617 10610 10604 10598 10588 10579 10567 10558 10549 10539 10530 10521 10511 10503 10495 10487 10478 10470 10462 10454
10681 10680 10679 10679 10678 10678 10675 10674 10670 10668 10664 10661 10660 10653 10648 10641 10637 10634 10628 10623 10617 10610 10603 10595 10585 10577 10570 10563 10553 10545 10537 10528 10519 10510 10501 10493 10485 10477 10469 10461 10454 10447 10440
10662 10660 10658 10657 10657 10656 10654 10650 10648 10645 10640 10636 10634 10634 10623 10618 10614 10609 10604 10599 10594 10588 10580 10571 10563 10556 10547 10539 10529 10522 10514 10507 10499 10491 10482 10475 10468 10460 10453 10446 10439 10432 10426
10641 10640 10637 10636 10632 10630 10632 10624 10619 10621 10616 10609 10608 10602 10602 10596 10588 10582 10578 10572 10569 10563 10555 10548 10540 10532 10524 10516 10509 10504 10496 10488 10480 10473 10467 10459 10450 10444 10438 10432 10425 10418 10412
10613 10614 10612 10609 10607 10602 10602 10601 10598 10594 10589 10583 10578 10576 10572 10569 10562 10556 10551 10546 10543 10537 10532 10525 10518 10511 10504 10495 10491 10485 10477 10471 10463 10456 10449 10442 10434 10428 10422 10416 10408 10402 10394